SL-6 R/B(2), 12680

Orbit data source: Space-Track

SL-6 R/B(2), 12680 is space debris in HEO originally from a launch on Tue, 04 Aug 1981 UTC launched from the Plesetsk Missile And Space Complex (PKMTR). Debris objects in space refer to the collection of defunct objects orbiting the Earth. Examples of debris include non-operational satellites, rocket bodies, and fragments generated from explosions, collisions, or faulty payload assembly.

Loading next visibility...
Identifier
12680, 1981-071D
Orbit
HEO
Country
Flag of CISCIS
Related business
Manufacturer
NPO Energiya
Mission
Spacecraft
Bus & Motor
BLOK-L, Unknown motor
Mass
~900 kg wet, ~900 kg dry
Launch date (UTC)
1981-08-04 (44 years ago)
Launch vehicle
Unknown
Launch site
Plesetsk Missile And Space Complex (PKMTR)
Object type
Payload
Rocket body
Debris
Shape & HBR
Cyl, 1.4 m
Radar Cross Section
7.756 m², Large (>1 m²)

Expand to show TLE details & history
Last TLE update: 2 days ago

TLE from 2 days ago
0 SL-6 R/B(2)
1 12680U 81071D   25259.36061742 -.00000677  00000-0  00000-0 0  9997
2 12680  65.9778  78.9975 6773782  19.6022 357.2496  1.99242016239291
Epoch: 2025-09-16T08:39Z
TLE epoch observation values (Epoch: 2025-09-16T08:39:17.345Z)
Latitude
-0.0004°
Longitude
-46.4065°
Altitude
2,447.613 km
Speed
8.683 km/s
True Right ascension
05h 15m 52s
True Declination
0° 00' 01"
Sunlit
Object was in daylight at epoch
Visualization orbit readout
Latitude
Unknown
Longitude
Unknown
Altitude
Unknown
Speed
Unknown
Apparent Right ascension
Unknown
Apparent Declination
Unknown
Sunlit
N/A
Visualization observer readout
Local Sidereal Time
15:00:29
Azimuth
Unknown
Elevation
Unknown
Doppler factor
Unknown
Orbital elements
Apogee altitude
38,368.683 km
Perigee altitude
2,228.33 km
Semi-major axis
26,676.643 km
Eccentricity
0.67738
Inclination
65.9778°
RAAN
78.9975°
Arg. of periapsis
19.6022°
True anomaly
340.85325°
Mean anomaly
357.2496°
Eccentric anomaly
351.53934°
Mean motion
0.49813 °/min
Orbital period
722.7 mins
BSTAR
0
Loading maneuver chart data...
Computing Atmospheric mass density...
Loading historical data...
Loading historical data...
Loading historical data...
Loading historical data...
Loading historical data...
Loading historical data...
Loading historical data...

Documentation

Showing up to 5 results
|